| time (UTC) | temp F | wind direction | speed knots | gust knots | rain 1hr in | rain 24hr in | rain mn in | humidity % | barometer mb |
| 20260508071431 | 41 | 309 | 0.0 | 0.0 | 0.00 | 0.00 | 0.00 | 96 | 1011.5 |
| 20260508070929 | 41 | 310 | 0.0 | 0.0 | 0.00 | 0.00 | 0.00 | 96 | 1011.4 |
| 20260508070427 | 42 | 309 | 0.0 | 0.0 | 0.00 | 0.00 | 0.00 | 95 | 1011.5 |
| 20260508065924 | 42 | 284 | 0.0 | 0.0 | 0.00 | 0.00 | 0.00 | 95 | 1011.6 |
| 20260508065422 | 42 | 262 | 0.0 | 0.0 | 0.00 | 0.00 | 0.00 | 95 | 1011.7 |
| 20260508064920 | 42 | 235 | 0.0 | 0.0 | 0.00 | 0.00 | 0.00 | 95 | 1011.6 |
| 20260508064417 | 42 | 318 | 0.0 | 0.0 | 0.00 | 0.00 | 0.00 | 94 | 1011.6 |
| 20260508063915 | 42 | 313 | 0.0 | 0.0 | 0.00 | 0.00 | 0.00 | 94 | 1011.5 |
| 20260508063412 | 42 | 289 | 0.0 | 0.0 | 0.00 | 0.00 | 0.00 | 94 | 1011.3 |
| 20260508062909 | 42 | 259 | 0.0 | 0.0 | 0.00 | 0.00 | 0.00 | 93 | 1011.3 |
| 20260508062407 | 42 | 244 | 0.0 | 0.0 | 0.00 | 0.00 | 0.00 | 93 | 1011.8 |
| 20260508061904 | 42 | 279 | 0.0 | 0.0 | 0.00 | 0.00 | 0.00 | 93 | 1011.5 |
| 20260508061401 | 42 | 258 | 0.0 | 0.0 | 0.00 | 0.00 | 0.00 | 93 | 1011.9 |
| 20260508060857 | 42 | 284 | 0.0 | 0.0 | 0.00 | 0.00 | 0.00 | 93 | 1011.7 |
| 20260508060355 | 43 | 281 | 0.0 | 0.0 | 0.00 | 0.00 | 0.00 | 94 | 1011.7 |
| 20260508055850 | 43 | 281 | 0.0 | 0.0 | 0.00 | 0.00 | 0.00 | 93 | 1011.8 |
| 20260508055348 | 43 | 251 | 0.0 | 0.0 | 0.00 | 0.00 | 0.00 | 92 | 1012.0 |
| 20260508054844 | 43 | 268 | 0.0 | 0.0 | 0.00 | 0.00 | 0.00 | 90 | 1012.2 |
| 20260508054342 | 44 | 279 | 0.0 | 0.0 | 0.00 | 0.00 | 0.00 | 88 | 1011.9 |
| 20260508053838 | 43 | 84 | 0.0 | 0.9 | 0.00 | 0.00 | 0.00 | 87 | 1011.7 |
| 20260508053336 | 43 | 80 | 0.0 | 0.0 | 0.00 | 0.00 | 0.00 | 89 | 1011.9 |
| 20260508052833 | 43 | 325 | 0.0 | 0.0 | 0.00 | 0.00 | 0.00 | 91 | 1011.8 |
| 20260508052330 | 43 | 320 | 0.0 | 0.0 | 0.00 | 0.00 | 0.00 | 91 | 1011.9 |
| 20260508051826 | 44 | 331 | 0.0 | 0.0 | 0.00 | 0.00 | 0.00 | 91 | 1011.7 |
| 20260508051322 | 44 | 87 | 0.0 | 0.0 | 0.00 | 0.00 | 0.00 | 92 | 1011.9 |
| 20260508050818 | 44 | 329 | 0.0 | 0.0 | 0.00 | 0.00 | 0.00 | 92 | 1012.0 |
| 20260508050316 | 44 | 328 | 0.0 | 0.0 | 0.00 | 0.00 | 0.00 | 91 | 1011.7 |
| 20260508045811 | 44 | 19 | 0.0 | 0.0 | 0.00 | 0.00 | 0.00 | 91 | 1011.7 |
| 20260508045309 | 43 | 346 | 0.0 | 0.0 | 0.00 | 0.00 | 0.00 | 91 | 1011.9 |
| 20260508044807 | 43 | 49 | 0.0 | 0.0 | 0.00 | 0.00 | 0.00 | 92 | 1011.9 |
| 20260508044303 | 43 | 280 | 0.0 | 0.0 | 0.00 | 0.00 | 0.00 | 91 | 1012.0 |
| 20260508043759 | 43 | 281 | 0.0 | 0.0 | 0.00 | 0.00 | 0.00 | 90 | 1011.9 |
| 20260508043257 | 43 | 281 | 0.0 | 0.0 | 0.00 | 0.00 | 0.00 | 90 | 1011.9 |
| 20260508042753 | 44 | 281 | 0.0 | 0.0 | 0.00 | 0.00 | 0.00 | 90 | 1011.7 |
| 20260508042251 | 44 | 295 | 0.0 | 0.0 | 0.00 | 0.00 | 0.00 | 89 | 1011.9 |
| 20260508041747 | 44 | 284 | 0.0 | 0.0 | 0.00 | 0.00 | 0.00 | 88 | 1011.6 |
| 20260508041244 | 44 | 65 | 0.0 | 0.0 | 0.00 | 0.00 | 0.00 | 88 | 1011.5 |
| 20260508040740 | 44 | 266 | 0.0 | 0.0 | 0.00 | 0.00 | 0.00 | 88 | 1011.8 |
| 20260508040238 | 43 | 309 | 0.0 | 0.0 | 0.00 | 0.00 | 0.00 | 88 | 1012.1 |
| 20260508035735 | 43 | 305 | 0.0 | 0.0 | 0.00 | 0.00 | 0.00 | 88 | 1011.9 |
| 20260508035232 | 43 | 305 | 0.0 | 0.0 | 0.00 | 0.00 | 0.00 | 87 | 1011.8 |
| 20260508034729 | 44 | 282 | 0.0 | 0.0 | 0.00 | 0.00 | 0.00 | 87 | 1011.8 |
| 20260508034226 | 43 | 288 | 0.0 | 0.0 | 0.00 | 0.00 | 0.00 | 85 | 1011.7 |
| 20260508033723 | 43 | 309 | 0.0 | 0.0 | 0.00 | 0.00 | 0.00 | 85 | 1011.8 |
| 20260508033222 | 43 | 310 | 0.0 | 0.0 | 0.00 | 0.00 | 0.00 | 84 | 1012.0 |
| 20260508032719 | 43 | 310 | 0.0 | 0.0 | 0.00 | 0.00 | 0.00 | 83 | 1011.7 |
| 20260508032216 | 43 | 305 | 0.0 | 0.0 | 0.00 | 0.00 | 0.00 | 82 | 1011.8 |
| 20260508031712 | 44 | 286 | 0.0 | 0.0 | 0.00 | 0.00 | 0.00 | 81 | 1011.3 |
| 20260508031209 | 44 | 282 | 0.0 | 0.0 | 0.00 | 0.00 | 0.00 | 80 | 1011.5 |
| 20260508030705 | 44 | 301 | 0.0 | 0.0 | 0.00 | 0.00 | 0.00 | 79 | 1011.7 |
| 20260508030203 | 44 | 347 | 0.0 | 0.0 | 0.00 | 0.00 | 0.00 | 78 | 1011.7 |
| 20260508025659 | 44 | 299 | 0.0 | 0.0 | 0.00 | 0.00 | 0.00 | 77 | 1011.7 |
| 20260508025156 | 44 | 299 | 0.0 | 0.0 | 0.00 | 0.00 | 0.00 | 75 | 1011.9 |
| 20260508024652 | 45 | 279 | 0.0 | 0.0 | 0.00 | 0.00 | 0.00 | 73 | 1011.5 |
| 20260508024149 | 45 | 29 | 0.0 | 0.0 | 0.00 | 0.00 | 0.00 | 73 | 1011.6 |
| 20260508023645 | 45 | 358 | 0.9 | 0.9 | 0.00 | 0.00 | 0.00 | 71 | 1011.7 |
| 20260508023143 | 45 | 321 | 0.0 | 0.0 | 0.00 | 0.00 | 0.00 | 70 | 1011.9 |
| 20260508022638 | 45 | 334 | 0.9 | 0.9 | 0.00 | 0.00 | 0.00 | 70 | 1011.6 |
| 20260508022136 | 46 | 45 | 0.9 | 0.9 | 0.00 | 0.00 | 0.00 | 69 | 1011.7 |
| 20260508021632 | 46 | 69 | 0.0 | 0.9 | 0.00 | 0.00 | 0.00 | 68 | 1011.7 |
| 20260508021127 | 47 | 4 | 0.0 | 0.0 | 0.00 | 0.00 | 0.00 | 62 | 1012.1 |
| 20260508020626 | 47 | 273 | 0.9 | 0.9 | 0.00 | 0.00 | 0.00 | 60 | 1012.1 |
| 20260508020123 | 46 | 295 | 1.7 | 1.7 | 0.00 | 0.00 | 0.00 | 59 | 1012.0 |
| 20260508015620 | 46 | 324 | 0.0 | 0.0 | 0.00 | 0.00 | 0.00 | 60 | 1011.7 |
| 20260508015117 | 46 | 321 | 2.6 | 2.6 | 0.00 | 0.00 | 0.00 | 61 | 1011.5 |
| 20260508014613 | 47 | 324 | 0.0 | 0.0 | 0.00 | 0.00 | 0.00 | 61 | 1011.2 |
| 20260508014110 | 47 | 303 | 0.0 | 0.0 | 0.00 | 0.00 | 0.00 | 60 | 1011.3 |
| 20260508013606 | 48 | 299 | 0.0 | 0.0 | 0.00 | 0.00 | 0.00 | 59 | 1011.2 |
| 20260508013103 | 48 | 296 | 0.0 | 0.0 | 0.00 | 0.00 | 0.00 | 59 | 1011.2 |
| 20260508012601 | 48 | 264 | 0.0 | 0.0 | 0.00 | 0.00 | 0.00 | 58 | 1011.1 |
| 20260508012058 | 48 | 305 | 0.9 | 1.7 | 0.00 | 0.00 | 0.00 | 57 | 1011.3 |
| 20260508011556 | 49 | 314 | 1.7 | 1.7 | 0.00 | 0.00 | 0.00 | 56 | 1011.1 |
| 20260508011053 | 49 | 311 | 1.7 | 1.7 | 0.00 | 0.00 | 0.00 | 55 | 1011.0 |
| 20260508010549 | 49 | 309 | 3.5 | 4.3 | 0.00 | 0.00 | 0.00 | 55 | 1010.9 |
| 20260508010047 | 49 | 296 | 0.0 | 0.0 | 0.00 | 0.00 | 0.00 | 54 | 1010.8 |
| 20260508005543 | 49 | 347 | 0.0 | 0.0 | 0.00 | 0.00 | 0.00 | 54 | 1011.0 |
| 20260508005040 | 49 | 313 | 0.9 | 1.7 | 0.00 | 0.00 | 0.00 | 54 | 1011.0 |
| 20260508004536 | 49 | 273 | 1.7 | 2.6 | 0.00 | 0.00 | 0.00 | 54 | 1010.9 |
| 20260508004033 | 49 | 302 | 0.0 | 0.0 | 0.00 | 0.00 | 0.00 | 54 | 1011.1 |
| 20260508003530 | 50 | 279 | 0.9 | 0.9 | 0.00 | 0.00 | 0.00 | 54 | 1010.9 |
| 20260508003027 | 50 | 244 | 4.3 | 5.2 | 0.00 | 0.00 | 0.00 | 52 | 1010.6 |
| 20260508002523 | 50 | 186 | 1.7 | 1.7 | 0.00 | 0.00 | 0.00 | 53 | 1010.9 |
| 20260508002021 | 50 | 254 | 0.0 | 0.0 | 0.00 | 0.00 | 0.00 | 53 | 1010.9 |
| 20260508001516 | 50 | 201 | 6.1 | 7.8 | 0.00 | 0.00 | 0.00 | 51 | 1010.8 |
| 20260508001013 | 50 | 169 | 2.6 | 5.2 | 0.00 | 0.00 | 0.00 | 51 | 1010.8 |
| 20260508000509 | 51 | 358 | 0.9 | 1.7 | 0.00 | 0.00 | 0.00 | 50 | 1010.9 |
| 20260508000006 | 51 | 289 | 2.6 | 2.6 | 0.00 | 0.00 | 0.00 | 50 | 1010.9 |
| 20260507235503 | 51 | 217 | 2.6 | 4.3 | 0.00 | 0.00 | 0.00 | 49 | 1010.6 |
| 20260507235000 | 51 | 322 | 1.7 | 2.6 | 0.00 | 0.00 | 0.00 | 49 | 1010.6 |
| 20260507234457 | 52 | 317 | 7.0 | 12.2 | 0.00 | 0.00 | 0.00 | 48 | 1010.6 |
| 20260507233953 | 52 | 293 | 2.6 | 4.3 | 0.00 | 0.00 | 0.00 | 47 | 1010.7 |
| 20260507233450 | 52 | 290 | 2.6 | 2.6 | 0.00 | 0.00 | 0.00 | 47 | 1010.6 |
| 20260507232949 | 52 | 290 | 4.3 | 6.1 | 0.00 | 0.00 | 0.00 | 46 | 1010.6 |
| 20260507232444 | 52 | 278 | 2.6 | 2.6 | 0.00 | 0.00 | 0.00 | 46 | 1010.6 |
| 20260507231942 | 53 | 227 | 6.1 | 8.7 | 0.00 | 0.00 | 0.00 | 45 | 1010.6 |
| 20260507231438 | 53 | 322 | 4.3 | 5.2 | 0.00 | 0.00 | 0.00 | 45 | 1010.5 |
| 20260507230935 | 53 | 234 | 1.7 | 1.7 | 0.00 | 0.00 | 0.00 | 46 | 1010.5 |
| 20260507230432 | 53 | 312 | 1.7 | 1.7 | 0.00 | 0.00 | 0.00 | 46 | 1010.6 |
| 20260507225933 | 52 | 302 | 5.2 | 9.6 | 0.00 | 0.00 | 0.00 | 45 | 1010.7 |
| 20260507225429 | 53 | 261 | 0.9 | 1.7 | 0.00 | 0.00 | 0.00 | 45 | 1010.6 |
| 20260507224925 | 53 | 289 | 1.7 | 1.7 | 0.00 | 0.00 | 0.00 | 46 | 1010.7 |
| 20260507224421 | 53 | 268 | 3.5 | 5.2 | 0.00 | 0.00 | 0.00 | 46 | 1010.7 |
| 20260507223918 | 53 | 311 | 1.7 | 2.6 | 0.00 | 0.00 | 0.00 | 46 | 1010.8 |
| 20260507223414 | 53 | 261 | 6.1 | 8.7 | 0.00 | 0.00 | 0.00 | 45 | 1010.8 |
| 20260507222911 | 53 | 287 | 1.7 | 2.6 | 0.00 | 0.00 | 0.00 | 45 | 1010.8 |
| 20260507222408 | 54 | 286 | 5.2 | 6.1 | 0.00 | 0.00 | 0.00 | 45 | 1010.6 |
| 20260507221905 | 54 | 21 | 0.0 | 0.0 | 0.00 | 0.00 | 0.00 | 45 | 1010.6 |
| 20260507221401 | 53 | 271 | 6.1 | 8.7 | 0.00 | 0.00 | 0.00 | 46 | 1010.8 |
| 20260507220857 | 53 | 249 | 4.3 | 5.2 | 0.00 | 0.00 | 0.00 | 46 | 1011.0 |
| 20260507220355 | 52 | 221 | 2.6 | 4.3 | 0.00 | 0.00 | 0.00 | 47 | 1010.8 |
| 20260507215852 | 53 | 284 | 3.5 | 5.2 | 0.00 | 0.00 | 0.00 | 46 | 1010.9 |
| 20260507215349 | 54 | 220 | 4.3 | 5.2 | 0.00 | 0.00 | 0.00 | 45 | 1010.8 |
| 20260507214846 | 53 | 283 | 7.8 | 9.6 | 0.00 | 0.00 | 0.00 | 46 | 1010.8 |
| 20260507214343 | 53 | 231 | 4.3 | 5.2 | 0.00 | 0.00 | 0.00 | 46 | 1010.8 |
| 20260507213838 | 53 | 234 | 3.5 | 5.2 | 0.00 | 0.00 | 0.00 | 47 | 1010.9 |
| 20260507213335 | 52 | 282 | 2.6 | 2.6 | 0.00 | 0.00 | 0.00 | 47 | 1010.8 |
| 20260507212832 | 53 | 287 | 7.0 | 8.7 | 0.00 | 0.00 | 0.00 | 46 | 1010.8 |
| 20260507212328 | 53 | 188 | 4.3 | 6.1 | 0.00 | 0.00 | 0.00 | 46 | 1010.7 |
| 20260507211824 | 53 | 229 | 6.1 | 9.6 | 0.00 | 0.00 | 0.00 | 46 | 1011.0 |
| 20260507211321 | 54 | 241 | 7.0 | 9.6 | 0.00 | 0.00 | 0.00 | 45 | 1010.9 |
| 20260507210818 | 53 | 245 | 0.9 | 0.9 | 0.00 | 0.00 | 0.00 | 46 | 1010.8 |
| 20260507210315 | 52 | 268 | 0.9 | 1.7 | 0.00 | 0.00 | 0.00 | 46 | 1010.9 |
| 20260507205811 | 53 | 246 | 1.7 | 1.7 | 0.00 | 0.00 | 0.00 | 46 | 1010.8 |
| 20260507205309 | 53 | 250 | 2.6 | 4.3 | 0.00 | 0.00 | 0.00 | 45 | 1010.8 |
| 20260507204804 | 53 | 239 | 1.7 | 2.6 | 0.00 | 0.00 | 0.00 | 45 | 1011.1 |
| 20260507204302 | 54 | 283 | 5.2 | 7.8 | 0.00 | 0.00 | 0.00 | 43 | 1011.0 |
| 20260507203800 | 53 | 320 | 6.1 | 7.8 | 0.00 | 0.00 | 0.00 | 45 | 1010.9 |
| 20260507203258 | 52 | 276 | 0.9 | 1.7 | 0.00 | 0.00 | 0.00 | 46 | 1010.8 |
| 20260507202754 | 52 | 243 | 1.7 | 1.7 | 0.00 | 0.00 | 0.00 | 47 | 1011.0 |
| 20260507202249 | 52 | 272 | 2.6 | 6.1 | 0.00 | 0.00 | 0.00 | 45 | 1011.1 |
| 20260507201744 | 52 | 249 | 7.0 | 8.7 | 0.00 | 0.00 | 0.00 | 44 | 1011.1 |
| 20260507201241 | 54 | 229 | 3.5 | 4.3 | 0.00 | 0.00 | 0.00 | 44 | 1011.1 |
| 20260507200738 | 55 | 317 | 5.2 | 9.6 | 0.00 | 0.00 | 0.00 | 43 | 1011.3 |
| 20260507200234 | 53 | 293 | 2.6 | 5.2 | 0.00 | 0.00 | 0.00 | 44 | 1011.2 |
| 20260507195730 | 54 | 216 | 4.3 | 7.8 | 0.00 | 0.00 | 0.00 | 44 | 1011.2 |
| 20260507195228 | 54 | 331 | 2.6 | 4.3 | 0.00 | 0.00 | 0.00 | 44 | 1011.2 |
| 20260507194725 | 54 | 344 | 2.6 | 4.3 | 0.00 | 0.00 | 0.00 | 44 | 1011.4 |
| 20260507194221 | 55 | 356 | 0.0 | 0.9 | 0.00 | 0.00 | 0.00 | 42 | 1011.3 |
| 20260507193718 | 52 | 84 | 1.7 | 4.3 | 0.00 | 0.00 | 0.00 | 45 | 1011.5 |
| 20260507193214 | 51 | 297 | 7.0 | 9.6 | 0.00 | 0.00 | 0.00 | 46 | 1011.5 |
| 20260507192710 | 53 | 232 | 3.5 | 5.2 | 0.00 | 0.00 | 0.00 | 45 | 1011.6 |
| 20260507192208 | 53 | 174 | 7.8 | 11.3 | 0.00 | 0.00 | 0.00 | 48 | 1011.5 |
| 20260507191703 | 52 | 285 | 6.1 | 7.0 | 0.00 | 0.00 | 0.00 | 46 | 1011.6 |
| 20260507191201 | 54 | 277 | 3.5 | 5.2 | 0.00 | 0.00 | 0.00 | 47 | 1011.6 |
| 20260507190657 | 51 | 279 | 0.9 | 1.7 | 0.00 | 0.00 | 0.00 | 48 | 1011.7 |
| 20260507190156 | 51 | 246 | 1.7 | 4.3 | 0.00 | 0.00 | 0.00 | 49 | 1011.8 |
| 20260507185654 | 51 | 252 | 2.6 | 2.6 | 0.00 | 0.00 | 0.00 | 48 | 1011.5 |
| 20260507185150 | 51 | 309 | 0.0 | 0.9 | 0.00 | 0.00 | 0.00 | 48 | 1011.9 |
| 20260507184648 | 51 | 329 | 4.3 | 5.2 | 0.00 | 0.00 | 0.00 | 46 | 1011.6 |
| 20260507184146 | 52 | 304 | 4.3 | 5.2 | 0.00 | 0.00 | 0.00 | 47 | 1012.0 |
| 20260507183642 | 53 | 215 | 1.7 | 4.3 | 0.00 | 0.00 | 0.00 | 46 | 1011.7 |
| 20260507183139 | 52 | 275 | 1.7 | 2.6 | 0.00 | 0.00 | 0.00 | 49 | 1011.9 |
| 20260507182636 | 51 | 253 | 6.1 | 7.8 | 0.00 | 0.00 | 0.00 | 49 | 1011.9 |
| 20260507182132 | 51 | 256 | 5.2 | 7.0 | 0.00 | 0.00 | 0.00 | 49 | 1011.8 |
| 20260507181628 | 51 | 328 | 0.9 | 0.9 | 0.00 | 0.00 | 0.00 | 50 | 1012.1 |
| 20260507181125 | 51 | 233 | 4.3 | 7.0 | 0.00 | 0.00 | 0.00 | 49 | 1012.2 |
| 20260507180621 | 50 | 281 | 4.3 | 6.1 | 0.00 | 0.00 | 0.00 | 50 | 1012.2 |
| 20260507180119 | 50 | 271 | 5.2 | 7.0 | 0.00 | 0.00 | 0.00 | 51 | 1012.3 |
| 20260507175614 | 49 | 220 | 5.2 | 7.8 | 0.00 | 0.00 | 0.00 | 51 | 1012.2 |
| 20260507175112 | 50 | 275 | 2.6 | 4.3 | 0.00 | 0.00 | 0.00 | 50 | 1012.3 |
| 20260507174609 | 50 | 294 | 2.6 | 2.6 | 0.00 | 0.00 | 0.00 | 49 | 1012.2 |
| 20260507174107 | 50 | 286 | 1.7 | 4.3 | 0.00 | 0.00 | 0.00 | 50 | 1012.1 |
| 20260507173604 | 49 | 2 | 0.9 | 1.7 | 0.00 | 0.00 | 0.00 | 53 | 1012.6 |
| 20260507173100 | 49 | 329 | 2.6 | 2.6 | 0.00 | 0.00 | 0.00 | 53 | 1012.5 |
| 20260507172556 | 50 | 273 | 2.6 | 2.6 | 0.00 | 0.00 | 0.00 | 52 | 1012.4 |
| 20260507172054 | 50 | 324 | 0.0 | 0.9 | 0.00 | 0.00 | 0.00 | 52 | 1012.6 |
| 20260507171549 | 50 | 214 | 0.9 | 1.7 | 0.00 | 0.00 | 0.00 | 53 | 1012.7 |
| 20260507171046 | 50 | 290 | 6.1 | 7.8 | 0.00 | 0.00 | 0.00 | 51 | 1012.7 |
| 20260507170543 | 50 | 266 | 2.6 | 2.6 | 0.00 | 0.00 | 0.00 | 53 | 1012.6 |
| 20260507170040 | 50 | 215 | 7.0 | 8.7 | 0.00 | 0.00 | 0.00 | 52 | 1012.6 |
| 20260507165535 | 51 | 255 | 4.3 | 5.2 | 0.00 | 0.00 | 0.00 | 53 | 1012.6 |
| 20260507165032 | 50 | 214 | 1.7 | 1.7 | 0.00 | 0.00 | 0.00 | 52 | 1012.7 |
| 20260507164528 | 50 | 271 | 4.3 | 5.2 | 0.00 | 0.00 | 0.00 | 51 | 1012.7 |
| 20260507164026 | 50 | 267 | 2.6 | 4.3 | 0.00 | 0.00 | 0.00 | 53 | 1012.5 |
| 20260507163522 | 50 | 193 | 4.3 | 5.2 | 0.00 | 0.00 | 0.00 | 51 | 1012.6 |
| 20260507163021 | 50 | 301 | 1.7 | 2.6 | 0.00 | 0.00 | 0.00 | 51 | 1013.2 |
| 20260507162515 | 51 | 294 | 2.6 | 4.3 | 0.00 | 0.00 | 0.00 | 51 | 1013.0 |
| 20260507162012 | 51 | 317 | 1.7 | 2.6 | 0.00 | 0.00 | 0.00 | 50 | 1012.9 |
| 20260507161509 | 51 | 299 | 5.2 | 7.0 | 0.00 | 0.00 | 0.00 | 52 | 1012.9 |
| 20260507161006 | 50 | 262 | 3.5 | 5.2 | 0.00 | 0.00 | 0.00 | 53 | 1013.2 |
| 20260507160501 | 50 | 227 | 4.3 | 6.1 | 0.00 | 0.00 | 0.00 | 53 | 1013.2 |
| 20260507155957 | 50 | 281 | 3.5 | 4.3 | 0.00 | 0.00 | 0.00 | 51 | 1013.0 |
| 20260507155453 | 49 | 210 | 4.3 | 5.2 | 0.00 | 0.00 | 0.00 | 53 | 1013.2 |
| 20260507154950 | 49 | 270 | 7.8 | 9.6 | 0.00 | 0.00 | 0.00 | 53 | 1012.7 |
| 20260507154447 | 50 | 306 | 1.7 | 2.6 | 0.00 | 0.00 | 0.00 | 56 | 1013.1 |
| 20260507153944 | 50 | 217 | 4.3 | 7.0 | 0.00 | 0.00 | 0.00 | 56 | 1013.0 |
| 20260507153441 | 49 | 262 | 6.1 | 7.8 | 0.00 | 0.00 | 0.00 | 54 | 1013.2 |
| 20260507152937 | 50 | 191 | 7.8 | 11.3 | 0.00 | 0.00 | 0.00 | 54 | 1013.0 |
| 20260507152433 | 50 | 198 | 2.6 | 4.3 | 0.00 | 0.00 | 0.00 | 58 | 1013.0 |
| 20260507151930 | 50 | 209 | 3.5 | 5.2 | 0.00 | 0.00 | 0.00 | 56 | 1012.9 |
| 20260507151426 | 50 | 260 | 2.6 | 2.6 | 0.00 | 0.00 | 0.00 | 58 | 1013.0 |
| 20260507150923 | 49 | 244 | 0.9 | 1.7 | 0.00 | 0.00 | 0.00 | 60 | 1013.0 |
| 20260507150420 | 50 | 214 | 3.5 | 5.2 | 0.00 | 0.00 | 0.00 | 60 | 1013.0 |
| 20260507145916 | 50 | 12 | 4.3 | 7.0 | 0.00 | 0.00 | 0.00 | 61 | 1012.9 |
| 20260507145412 | 50 | 284 | 2.6 | 4.3 | 0.00 | 0.00 | 0.00 | 61 | 1013.0 |
| 20260507144909 | 51 | 330 | 7.8 | 8.7 | 0.00 | 0.00 | 0.00 | 59 | 1012.6 |
| 20260507144406 | 50 | 305 | 4.3 | 5.2 | 0.00 | 0.00 | 0.00 | 59 | 1012.6 |
| 20260507143903 | 50 | 333 | 2.6 | 2.6 | 0.00 | 0.00 | 0.00 | 60 | 1012.6 |
| 20260507143401 | 51 | 287 | 2.6 | 5.2 | 0.00 | 0.00 | 0.00 | 58 | 1012.7 |
| 20260507142857 | 50 | 292 | 1.7 | 1.7 | 0.00 | 0.00 | 0.00 | 57 | 1012.6 |
| 20260507142353 | 51 | 339 | 4.3 | 5.2 | 0.00 | 0.00 | 0.00 | 58 | 1012.6 |
| 20260507141850 | 51 | 245 | 2.6 | 2.6 | 0.00 | 0.00 | 0.00 | 56 | 1012.6 |
| 20260507141346 | 50 | 327 | 2.6 | 5.2 | 0.00 | 0.00 | 0.00 | 57 | 1012.9 |
| 20260507140843 | 50 | 308 | 7.0 | 7.8 | 0.00 | 0.00 | 0.00 | 55 | 1012.6 |
| 20260507140340 | 50 | 285 | 4.3 | 5.2 | 0.00 | 0.00 | 0.00 | 56 | 1012.7 |
| 20260507135838 | 50 | 266 | 0.9 | 1.7 | 0.00 | 0.00 | 0.00 | 60 | 1012.7 |
| 20260507135334 | 50 | 249 | 1.7 | 2.6 | 0.00 | 0.00 | 0.00 | 59 | 1012.7 |
| 20260507134832 | 51 | 228 | 0.9 | 1.7 | 0.00 | 0.00 | 0.00 | 59 | 1013.0 |
| 20260507134328 | 48 | 265 | 0.9 | 0.9 | 0.00 | 0.00 | 0.00 | 62 | 1012.9 |
| 20260507133824 | 49 | 281 | 0.9 | 0.9 | 0.00 | 0.00 | 0.00 | 62 | 1012.9 |
| 20260507133319 | 48 | 244 | 2.6 | 4.3 | 0.00 | 0.00 | 0.00 | 63 | 1013.0 |
| 20260507132818 | 48 | 273 | 1.7 | 1.7 | 0.00 | 0.00 | 0.00 | 64 | 1012.9 |
| 20260507132314 | 49 | 287 | 0.9 | 0.9 | 0.00 | 0.00 | 0.00 | 64 | 1012.9 |
| 20260507131812 | 49 | 278 | 0.0 | 0.0 | 0.00 | 0.00 | 0.00 | 65 | 1012.9 |
| 20260507131308 | 47 | 259 | 1.7 | 1.7 | 0.00 | 0.00 | 0.00 | 67 | 1012.6 |
| 20260507130805 | 47 | 274 | 2.6 | 2.6 | 0.00 | 0.00 | 0.00 | 68 | 1012.9 |
| 20260507130303 | 46 | 322 | 0.0 | 0.9 | 0.00 | 0.00 | 0.00 | 71 | 1012.9 |
| 20260507125801 | 46 | 289 | 2.6 | 2.6 | 0.00 | 0.00 | 0.00 | 72 | 1013.1 |
| 20260507125258 | 46 | 277 | 0.9 | 1.7 | 0.00 | 0.00 | 0.00 | 73 | 1012.9 |
| 20260507124755 | 45 | 201 | 0.9 | 0.9 | 0.00 | 0.00 | 0.00 | 76 | 1012.9 |
| 20260507124251 | 44 | 327 | 0.0 | 0.0 | 0.00 | 0.00 | 0.00 | 77 | 1012.9 |
| 20260507123750 | 44 | 254 | 0.9 | 1.7 | 0.00 | 0.00 | 0.00 | 78 | 1012.6 |
| 20260507123247 | 43 | 300 | 0.9 | 0.9 | 0.00 | 0.00 | 0.00 | 80 | 1012.7 |
| 20260507122743 | 42 | 311 | 0.0 | 0.0 | 0.00 | 0.00 | 0.00 | 82 | 1013.0 |
| 20260507122238 | 41 | 258 | 0.0 | 0.0 | 0.00 | 0.00 | 0.00 | 82 | 1013.1 |
| 20260507121734 | 40 | 284 | 0.0 | 0.0 | 0.00 | 0.00 | 0.00 | 84 | 1012.9 |
| 20260507121230 | 40 | 287 | 0.0 | 0.0 | 0.00 | 0.00 | 0.00 | 84 | 1012.9 |
| 20260507120727 | 40 | 265 | 0.0 | 0.0 | 0.00 | 0.00 | 0.00 | 84 | 1012.9 |
| 20260507120224 | 40 | 278 | 0.0 | 0.0 | 0.00 | 0.00 | 0.00 | 85 | 1013.0 |
| 20260507115720 | 39 | 287 | 0.9 | 0.9 | 0.00 | 0.00 | 0.00 | 86 | 1013.0 |
| 20260507115216 | 38 | 283 | 0.0 | 0.0 | 0.00 | 0.00 | 0.00 | 89 | 1012.6 |
| 20260507114711 | 38 | 296 | 0.0 | 0.0 | 0.00 | 0.00 | 0.00 | 94 | 1013.0 |
| 20260507114209 | 37 | 292 | 0.0 | 0.0 | 0.00 | 0.00 | 0.00 | 96 | 1012.9 |
| 20260507113706 | 37 | 288 | 0.0 | 0.0 | 0.00 | 0.00 | 0.00 | 97 | 1012.9 |
| 20260507113203 | 36 | 303 | 0.0 | 0.0 | 0.00 | 0.00 | 0.00 | 98 | 1012.7 |
| 20260507112701 | 36 | 303 | 0.0 | 0.0 | 0.00 | 0.00 | 0.00 | 98 | 1013.0 |
| 20260507112158 | 35 | 294 | 0.0 | 0.0 | 0.00 | 0.00 | 0.00 | 98 | 1012.6 |
| 20260507111655 | 35 | 290 | 0.0 | 0.0 | 0.00 | 0.00 | 0.00 | 99 | 1012.6 |
| 20260507111152 | 35 | 291 | 0.0 | 0.0 | 0.00 | 0.00 | 0.00 | 99 | 1012.6 |
| 20260507110647 | 34 | 284 | 0.0 | 0.0 | 0.00 | 0.00 | 0.00 | 99 | 1012.6 |
| 20260507110144 | 34 | 279 | 0.0 | 0.0 | 0.00 | 0.00 | 0.00 | 99 | 1012.4 |
| 20260507105641 | 34 | 278 | 0.0 | 0.0 | 0.00 | 0.00 | 0.00 | 99 | 1012.3 |
| 20260507105137 | 33 | 286 | 0.0 | 0.0 | 0.00 | 0.00 | 0.00 | 99 | 1012.4 |
| 20260507104635 | 33 | 318 | 0.0 | 0.0 | 0.00 | 0.00 | 0.00 | 98 | 1012.4 |
| 20260507104131 | 33 | 325 | 0.0 | 0.0 | 0.00 | 0.00 | 0.00 | 98 | 1012.3 |
| 20260507103627 | 33 | 283 | 0.0 | 0.0 | 0.00 | 0.00 | 0.00 | 98 | 1012.5 |
| 20260507103124 | 34 | 283 | 0.0 | 0.0 | 0.00 | 0.00 | 0.00 | 98 | 1012.6 |
| 20260507102621 | 34 | 282 | 0.0 | 0.0 | 0.00 | 0.00 | 0.00 | 98 | 1012.3 |
| 20260507102117 | 34 | 297 | 0.0 | 0.0 | 0.00 | 0.00 | 0.00 | 97 | 1012.4 |
| 20260507101613 | 34 | 300 | 0.0 | 0.0 | 0.00 | 0.00 | 0.00 | 97 | 1012.4 |
| 20260507101109 | 34 | 306 | 0.0 | 0.0 | 0.00 | 0.00 | 0.00 | 97 | 1012.3 |
| 20260507100606 | 34 | 317 | 0.0 | 0.0 | 0.00 | 0.00 | 0.00 | 97 | 1012.3 |
| 20260507100104 | 35 | 303 | 0.0 | 0.0 | 0.00 | 0.00 | 0.00 | 96 | 1012.3 |
| 20260507095602 | 34 | 38 | 0.0 | 0.0 | 0.00 | 0.00 | 0.00 | 96 | 1012.1 |
| 20260507095058 | 34 | 355 | 0.0 | 0.0 | 0.00 | 0.00 | 0.00 | 96 | 1012.4 |
| 20260507094554 | 35 | 307 | 0.0 | 0.0 | 0.00 | 0.00 | 0.00 | 95 | 1012.3 |
| 20260507094051 | 35 | 325 | 0.0 | 0.0 | 0.00 | 0.00 | 0.00 | 95 | 1012.3 |
| 20260507093549 | 35 | 317 | 0.0 | 0.0 | 0.00 | 0.00 | 0.00 | 95 | 1012.4 |
| 20260507093048 | 35 | 300 | 0.0 | 0.0 | 0.00 | 0.00 | 0.00 | 94 | 1012.4 |
| 20260507092544 | 35 | 259 | 0.0 | 0.0 | 0.00 | 0.00 | 0.00 | 94 | 1012.3 |
| 20260507092040 | 36 | 284 | 0.0 | 0.0 | 0.00 | 0.00 | 0.00 | 93 | 1012.2 |
| 20260507091537 | 36 | 283 | 0.0 | 0.0 | 0.00 | 0.00 | 0.00 | 93 | 1012.3 |
| 20260507091033 | 36 | 285 | 0.0 | 0.0 | 0.00 | 0.00 | 0.00 | 92 | 1012.5 |
| 20260507090529 | 36 | 297 | 0.0 | 0.0 | 0.00 | 0.00 | 0.00 | 92 | 1012.3 |
| 20260507090026 | 37 | 23 | 0.0 | 0.0 | 0.00 | 0.00 | 0.00 | 92 | 1012.5 |
| 20260507085523 | 36 | 312 | 0.0 | 0.0 | 0.00 | 0.00 | 0.00 | 92 | 1012.4 |
| 20260507085020 | 37 | 318 | 0.0 | 0.0 | 0.00 | 0.00 | 0.00 | 92 | 1012.5 |
| 20260507084517 | 36 | 355 | 0.0 | 0.0 | 0.00 | 0.00 | 0.00 | 92 | 1012.6 |
| 20260507084014 | 36 | 32 | 0.0 | 0.0 | 0.00 | 0.00 | 0.00 | 92 | 1012.5 |
| 20260507083510 | 36 | 296 | 0.0 | 0.0 | 0.00 | 0.00 | 0.00 | 92 | 1012.7 |
| 20260507083007 | 36 | 296 | 0.0 | 0.0 | 0.00 | 0.00 | 0.00 | 92 | 1012.7 |
| 20260507082503 | 36 | 296 | 0.0 | 0.0 | 0.00 | 0.00 | 0.00 | 92 | 1012.6 |
| 20260507081959 | 36 | 296 | 0.0 | 0.0 | 0.00 | 0.00 | 0.00 | 91 | 1012.6 |
| 20260507081455 | 36 | 296 | 0.0 | 0.0 | 0.00 | 0.00 | 0.00 | 91 | 1012.6 |
| 20260507080953 | 36 | 291 | 0.0 | 0.0 | 0.00 | 0.00 | 0.00 | 91 | 1012.7 |
| 20260507080448 | 36 | 285 | 0.0 | 0.0 | 0.00 | 0.00 | 0.00 | 91 | 1012.6 |
| 20260507075944 | 35 | 292 | 0.0 | 0.0 | 0.00 | 0.00 | 0.00 | 92 | 1012.4 |
| 20260507075441 | 35 | 293 | 0.0 | 0.0 | 0.00 | 0.00 | 0.00 | 92 | 1012.5 |
| 20260507074937 | 36 | 295 | 0.0 | 0.0 | 0.00 | 0.00 | 0.00 | 92 | 1012.6 |
| 20260507074433 | 36 | 304 | 0.0 | 0.0 | 0.00 | 0.00 | 0.00 | 91 | 1012.5 |
| 20260507073931 | 36 | 338 | 0.0 | 0.0 | 0.00 | 0.00 | 0.00 | 91 | 1012.7 |
| 20260507073422 | 36 | 336 | 0.0 | 0.0 | 0.00 | 0.00 | 0.00 | 91 | 1012.6 |
| 20260507072919 | 36 | 287 | 0.0 | 0.0 | 0.00 | 0.00 | 0.00 | 90 | 1012.4 |
| 20260507072417 | 36 | 287 | 0.0 | 0.0 | 0.00 | 0.00 | 0.00 | 89 | 1012.6 |
| 20260507071915 | 37 | 284 | 0.0 | 0.0 | 0.00 | 0.00 | 0.00 | 89 | 1012.7 |